GW5747 Weather Reports


Display with metric or nautical units.
time (UTC)temp
F
wind
direction
speed
MPH
gust
MPH
rain 1hr
in
rain 24hr
in
rain mn
in
humidity
%
barometer
mb
20260507130314 54 148 0.0 0.0 0.00 0.02 0.02 78 1002.2
20260507125812 54 148 0.0 0.0 0.00 0.02 0.02 83 1002.5
20260507125309 54 138 0.0 0.0 0.00 0.02 0.02 82 1002.7
20260507124806 54 143 0.0 0.0 0.00 0.02 0.02 82 1002.5
20260507124303 53 127 0.0 0.0 0.00 0.02 0.02 80 1002.4
20260507123801 53 146 0.0 0.0 0.00 0.02 0.02 82 1002.5
20260507123258 53 137 0.0 0.0 0.00 0.02 0.02 84 1002.5
20260507122754 53 132 0.0 0.0 0.00 0.02 0.02 84 1002.5
20260507122249 53 155 0.0 0.0 0.00 0.02 0.02 85 1002.6
20260507121746 53 142 0.0 0.0 0.00 0.02 0.02 84 1002.4
20260507121241 53 135 0.0 0.0 0.00 0.02 0.02 84 1002.4
20260507120738 53 146 0.0 0.0 0.00 0.02 0.02 87 1002.4
20260507120235 53 146 0.0 0.0 0.00 0.02 0.02 86 1002.3
20260507115731 53 150 0.0 0.0 0.00 0.02 0.02 82 1002.1
20260507115227 53 140 0.0 0.0 0.00 0.02 0.02 85 1002.0
20260507114723 53 136 0.0 0.0 0.00 0.02 0.02 84 1002.1
20260507114220 53 137 0.0 0.0 0.00 0.02 0.02 84 1002.2
20260507113718 53 137 0.0 0.0 0.00 0.02 0.02 84 1002.1
20260507113214 53 137 0.0 0.0 0.00 0.02 0.02 83 1001.9
20260507112712 53 149 0.0 0.0 0.00 0.02 0.02 84 1002.0
20260507112209 53 142 0.0 0.0 0.00 0.02 0.02 85 1002.1
20260507111706 53 152 0.0 1.0 0.00 0.02 0.02 83 1001.9
20260507111203 53 92 0.0 0.0 0.00 0.02 0.02 87 1002.0
20260507110658 53 140 0.0 0.0 0.00 0.02 0.02 86 1002.0
20260507110156 53 138 0.0 0.0 0.00 0.02 0.02 86 1002.0
20260507105653 53 144 0.0 1.0 0.00 0.02 0.02 87 1002.0
20260507105148 53 124 0.0 0.0 0.00 0.02 0.02 90 1001.9
20260507104646 53 139 0.0 0.0 0.00 0.02 0.02 92 1001.7
20260507104142 53 145 0.0 0.0 0.00 0.02 0.02 94 1001.9
20260507103638 53 133 0.0 0.0 0.00 0.02 0.02 95 1001.8
20260507103135 53 134 0.0 0.0 0.00 0.02 0.02 95 1001.7
20260507102632 53 149 0.0 0.0 0.00 0.02 0.02 96 1001.5
20260507102128 53 144 0.0 0.0 0.00 0.02 0.02 96 1001.7
20260507101624 53 144 0.0 0.0 0.00 0.02 0.02 96 1001.3
20260507101120 53 144 0.0 0.0 0.00 0.02 0.02 96 1001.4
20260507100618 53 144 0.0 0.0 0.00 0.02 0.02 96 1001.5
20260507100115 53 144 0.0 0.0 0.00 0.02 0.02 96 1001.4
20260507095613 54 144 0.0 0.0 0.00 0.02 0.02 96 1001.3
20260507095109 54 148 0.0 0.0 0.00 0.02 0.02 96 1001.3
20260507094606 54 148 0.0 0.0 0.05 0.02 0.02 96 1001.4
20260507094103 54 154 0.0 0.0 0.05 0.02 0.02 96 1001.5
20260507093600 54 154 0.0 0.0 0.00 0.01 0.01 96 1001.4
20260507093059 54 154 0.0 0.0 0.00 0.01 0.01 95 1001.1
20260507092555 54 135 0.0 0.0 0.00 0.01 0.01 96 1001.1
20260507092052 54 147 0.0 0.0 0.00 0.01 0.01 96 1001.0
20260507091548 54 139 0.0 0.0 0.00 0.01 0.01 96 1001.0
20260507091045 54 139 0.0 0.0 0.00 0.01 0.01 96 1001.1
20260507090540 54 142 0.0 0.0 0.00 0.01 0.01 96 1001.2
20260507090038 54 145 0.0 0.0 0.00 0.01 0.01 96 1001.1
20260507085535 54 145 0.0 0.0 0.00 0.01 0.01 96 1001.3
20260507085031 54 142 0.0 0.0 0.00 0.01 0.01 96 1001.0
20260507084528 54 142 0.0 0.0 0.00 0.01 0.01 96 1001.2
20260507084025 54 142 0.0 0.0 0.00 0.01 0.01 96 1001.0
20260507083521 54 142 0.0 0.0 0.00 0.01 0.01 96 1001.0
20260507083018 54 142 0.0 0.0 0.00 0.01 0.01 95 1001.0
20260507082514 54 137 0.0 0.0 0.00 0.01 0.01 95 1000.8
20260507082010 54 136 0.0 0.0 0.00 0.01 0.01 95 1000.8
20260507081507 54 149 0.0 0.0 0.00 0.01 0.01 95 1000.7
20260507081004 54 135 0.0 0.0 0.00 0.01 0.01 94 1000.7
20260507080459 54 135 0.0 0.0 0.00 0.01 0.01 94 1000.5
20260507075955 54 147 0.0 0.0 0.00 0.01 0.01 94 1000.3
20260507075452 54 139 0.0 0.0 0.00 0.01 0.01 94 1000.3
20260507074948 54 123 0.0 0.0 0.00 0.01 0.01 95 1000.3
20260507074445 54 144 0.0 0.0 0.00 0.01 0.01 95 1000.6
20260507073943 55 143 0.0 0.0 0.00 0.01 0.01 96 1000.2
20260507073439 55 136 0.0 0.0 0.00 0.01 0.01 96 1000.2
20260507072936 55 135 0.0 0.0 0.00 0.01 0.01 96 1000.3
20260507072434 55 152 0.0 0.0 0.00 0.01 0.01 96 1000.5
20260507071931 55 150 0.0 0.0 0.00 0.01 0.01 97 1000.2
20260507071428 55 148 0.0 0.0 0.00 0.01 0.01 97 1000.1
20260507070924 55 148 0.0 0.0 0.07 0.01 0.01 97 1000.1
20260507070422 56 152 0.0 0.0 0.07 0.01 0.01 98 1000.1
20260507065918 56 149 0.0 0.0 0.00 0.00 0.00 98 1000.1
20260507065415 56 147 0.0 0.0 0.00 0.00 0.00 98 1000.3
20260507064907 56 147 0.0 0.0 0.00 0.00 0.00 97 1000.2
20260507064405 56 142 0.0 1.0 0.00 0.00 0.00 97 1000.2
20260507063902 56 143 0.0 0.0 0.00 0.00 0.00 97 1000.2
20260507063359 56 140 0.0 0.0 0.00 0.00 0.00 97 1000.3
20260507062856 56 151 0.0 0.0 0.00 0.00 0.00 97 1000.3
20260507062352 56 149 0.0 0.0 0.00 0.00 0.00 97 1000.2
20260507061850 56 141 0.0 0.0 0.00 0.00 0.00 97 1000.3
20260507061348 56 149 0.0 0.0 0.00 0.00 0.00 97 1000.4
20260507060846 56 149 0.0 0.0 0.00 0.00 0.00 97 1000.1
20260507060343 56 149 0.0 0.0 0.00 0.00 0.00 97 1000.0
20260507055840 56 139 0.0 0.0 0.00 0.00 0.00 96 1000.1
20260507055335 56 151 0.0 0.0 0.00 0.00 0.00 96 1000.2
20260507054832 56 141 0.0 0.0 0.00 0.00 0.00 96 1000.1
20260507054328 57 146 0.0 0.0 0.00 0.00 0.00 96 1000.4
20260507053825 57 145 0.0 0.0 0.00 0.00 0.00 96 1000.5
20260507053323 57 149 0.0 0.0 0.00 0.00 0.00 96 1000.3
20260507052822 57 158 0.0 0.0 0.00 0.00 0.00 95 1000.2
20260507052318 57 148 0.0 0.0 0.00 0.00 0.00 95 1000.5
20260507051816 57 144 0.0 0.0 0.00 0.00 0.00 94 1000.1
20260507051313 57 135 0.0 0.0 0.00 0.00 0.00 93 1000.2
20260507050809 58 134 0.0 0.0 0.00 0.00 0.00 92 1000.2
20260507050306 58 122 0.0 0.0 0.00 0.00 0.00 91 1000.4
20260507045803 59 141 0.0 0.0 0.00 0.00 0.00 89 1000.9
20260507045259 60 139 0.0 0.0 0.00 0.00 0.00 87 1000.6
20260507044757 60 167 1.0 1.0 0.00 0.00 0.00 84 1000.5
20260507044253 60 145 0.0 0.0 0.00 0.00 0.00 83 1000.1
20260507043749 60 146 0.0 0.0 0.00 0.00 0.00 82 1000.2
20260507043246 61 155 0.0 1.0 0.00 0.00 0.00 81 1000.3
20260507042742 61 143 0.0 0.0 0.00 0.00 0.00 80 1000.3
20260507042237 61 154 1.0 1.0 0.00 0.00 0.00 80 1000.4
20260507041735 61 114 0.0 1.0 0.00 0.00 0.00 81 1000.6
20260507041232 61 117 0.0 1.0 0.00 0.00 0.00 82 1000.2
20260507040729 61 134 0.0 0.0 0.00 0.00 0.00 82 1000.3
20260507040225 62 150 0.0 0.0 0.00 0.00 0.00 81 1000.3
20260507035721 62 148 0.0 0.0 0.00 0.27 0.27 81 999.9
20260507035216 62 143 0.0 0.0 0.00 0.27 0.27 80 999.8
20260507034714 62 151 0.0 1.0 0.00 0.27 0.27 80 999.7
20260507034211 63 157 0.0 0.0 0.00 0.27 0.27 80 999.8
20260507033709 63 137 0.0 0.0 0.00 0.27 0.27 79 1000.0
20260507033206 63 87 1.0 2.0 0.00 0.27 0.27 79 999.7
20260507032704 63 156 1.0 1.0 0.00 0.27 0.27 80 1000.1
20260507032159 63 166 0.0 0.0 0.00 0.27 0.27 81 999.8
20260507031656 63 149 0.0 0.0 0.00 0.27 0.27 82 999.7
20260507031153 64 135 0.0 0.0 0.00 0.27 0.27 81 999.8
20260507030650 64 157 0.0 1.0 0.00 0.27 0.27 81 999.4
20260507030148 64 149 0.0 0.0 0.00 0.27 0.27 81 999.3
20260507025644 64 113 0.0 1.0 0.00 0.27 0.27 80 999.4
20260507025142 64 140 0.0 0.0 0.00 0.27 0.27 80 999.6
20260507024640 64 86 1.0 1.0 0.00 0.27 0.27 79 999.7
20260507024136 64 131 0.0 0.0 0.00 0.27 0.27 79 999.7
20260507023632 64 144 0.0 0.0 0.00 0.27 0.27 79 999.5
20260507023130 64 126 0.0 0.0 0.00 0.27 0.27 78 999.1
20260507022626 64 104 0.0 1.0 0.00 0.27 0.27 79 999.3
20260507022121 65 93 0.0 1.0 0.00 0.27 0.27 80 999.5
20260507021618 65 137 0.0 0.0 0.00 0.27 0.27 81 999.3
20260507021114 65 156 0.0 1.0 0.00 0.27 0.27 82 999.0
20260507020613 65 149 0.0 0.0 0.00 0.27 0.27 82 999.0
20260507020109 65 92 1.0 2.0 0.00 0.27 0.27 81 998.9
20260507015608 66 134 0.0 0.0 0.00 0.27 0.27 81 998.7
20260507015105 66 122 0.0 0.0 0.00 0.27 0.27 81 999.0
20260507014601 66 71 1.0 1.0 0.00 0.27 0.27 81 999.0
20260507014056 66 141 0.0 0.0 0.00 0.27 0.27 82 999.1
20260507013553 66 145 0.0 0.0 0.00 0.27 0.27 82 999.3
20260507013051 67 135 1.0 1.0 0.00 0.27 0.27 82 999.1
20260507012548 67 136 0.0 0.0 0.00 0.27 0.27 83 999.2
20260507012043 67 124 1.0 2.0 0.00 0.27 0.27 84 998.9
20260507011541 67 129 0.0 0.0 0.00 0.27 0.27 89 999.2
20260507011037 66 140 0.0 0.0 0.00 0.27 0.27 90 998.8
20260507010532 66 142 0.0 0.0 0.00 0.27 0.27 90 999.0
20260507010029 66 144 0.0 0.0 0.00 0.27 0.27 90 999.0
20260507005527 66 144 0.0 0.0 0.00 0.27 0.27 89 999.0
20260507005023 67 147 0.0 0.0 0.00 0.27 0.27 89 998.8
20260507004520 67 141 0.0 0.0 0.00 0.27 0.27 89 998.7
20260507004018 67 141 0.0 0.0 0.00 0.27 0.27 89 998.8
20260507003513 67 141 0.0 0.0 0.00 0.27 0.27 88 998.6
20260507003008 67 145 0.0 0.0 0.00 0.27 0.27 89 998.8
20260507002505 67 146 0.0 0.0 0.00 0.27 0.27 89 998.7
20260507002001 67 147 0.0 0.0 0.00 0.27 0.27 89 998.5
20260507001458 67 145 0.0 0.0 0.00 0.27 0.27 88 998.4
20260507000955 67 143 0.0 0.0 0.00 0.27 0.27 88 998.3
20260507000451 67 146 0.0 0.0 0.00 0.27 0.27 88 998.4
20260506235946 67 150 0.0 0.0 0.00 0.27 0.27 88 998.5
20260506235444 67 132 0.0 0.0 0.00 0.27 0.27 88 998.4
20260506234939 68 132 0.0 0.0 0.00 0.27 0.27 87 998.5
20260506234437 68 146 0.0 0.0 0.00 0.27 0.27 86 998.4
20260506233934 68 146 0.0 0.0 0.00 0.27 0.27 87 998.3
20260506233431 68 145 0.0 0.0 0.00 0.27 0.27 85 998.1
20260506232927 68 145 0.0 0.0 0.00 0.27 0.27 85 998.2
20260506232423 68 147 0.0 0.0 0.00 0.27 0.27 85 998.2
20260506231919 68 147 0.0 0.0 0.00 0.27 0.27 85 998.2
20260506231417 69 147 0.0 0.0 0.00 0.27 0.27 84 998.1
20260506230914 69 142 0.0 0.0 0.00 0.27 0.27 84 997.9
20260506230411 69 140 0.0 0.0 0.00 0.27 0.27 84 997.7
20260506225907 69 154 0.0 0.0 0.00 0.27 0.27 83 997.8
20260506225405 69 150 0.0 0.0 0.00 0.27 0.27 82 997.7
20260506224901 69 147 0.0 0.0 0.00 0.27 0.27 83 997.8
20260506224359 69 141 0.0 0.0 0.00 0.27 0.27 83 997.8
20260506223855 69 139 0.0 0.0 0.00 0.27 0.27 83 997.9
20260506223350 69 144 0.0 0.0 0.00 0.27 0.27 82 997.7
20260506222848 69 146 0.0 0.0 0.00 0.27 0.27 82 997.8
20260506222343 69 147 0.0 0.0 0.00 0.27 0.27 82 997.7
20260506221841 70 128 1.0 2.0 0.00 0.27 0.27 82 997.5
20260506221338 70 146 0.0 0.0 0.00 0.27 0.27 83 997.7
20260506220836 70 151 0.0 0.0 0.00 0.27 0.27 82 997.7
20260506220331 69 149 0.0 0.0 0.00 0.27 0.27 82 997.5
20260506215829 69 148 0.0 0.0 0.00 0.27 0.27 82 997.7
20260506215324 70 139 0.0 1.0 0.00 0.27 0.27 82 997.6
20260506214820 70 167 0.0 0.0 0.00 0.27 0.27 82 997.6
20260506214317 70 150 0.0 0.0 0.00 0.27 0.27 81 997.6
20260506213815 69 159 1.0 2.0 0.00 0.27 0.27 81 997.7
20260506213312 69 147 0.0 0.0 0.00 0.27 0.27 81 997.6
20260506212809 70 155 1.0 1.0 0.00 0.27 0.27 81 997.4
20260506212306 70 142 0.0 1.0 0.00 0.27 0.27 81 997.5
20260506211800 70 165 0.0 1.0 0.00 0.27 0.27 80 997.5
20260506211257 70 163 0.0 1.0 0.00 0.27 0.27 80 997.3
20260506210754 70 169 0.0 1.0 0.00 0.27 0.27 80 997.4
20260506210250 70 149 0.0 0.0 0.00 0.27 0.27 80 997.1
20260506205748 70 154 1.0 1.0 0.00 0.27 0.27 79 997.0
20260506205243 70 154 0.0 0.0 0.00 0.27 0.27 80 997.3
20260506204740 70 146 0.0 0.0 0.00 0.27 0.27 80 997.2
20260506204238 70 169 0.0 1.0 0.00 0.27 0.27 80 997.3
20260506203736 70 148 0.0 0.0 0.00 0.27 0.27 81 997.1
20260506203232 70 187 0.0 1.0 0.00 0.27 0.27 80 996.9
20260506202730 70 118 0.0 0.0 0.00 0.27 0.27 80 997.2
20260506202226 71 139 0.0 0.0 0.00 0.27 0.27 79 997.6
20260506201723 71 152 0.0 0.0 0.00 0.27 0.27 81 997.2
20260506201221 70 125 0.0 1.0 0.00 0.27 0.27 80 997.2
20260506200718 70 171 0.0 1.0 0.00 0.27 0.27 80 997.2
20260506200214 70 126 2.0 3.0 0.00 0.27 0.27 80 997.1
20260506195710 69 151 0.0 0.0 0.00 0.27 0.27 80 997.4
20260506195207 69 152 1.0 2.0 0.00 0.27 0.27 82 997.3
20260506194704 69 172 0.0 1.0 0.00 0.27 0.27 81 997.4
20260506194200 70 137 1.0 2.0 0.00 0.27 0.27 80 997.4
20260506193658 70 140 0.0 0.0 0.00 0.27 0.27 81 997.4
20260506193155 70 148 0.0 1.0 0.00 0.27 0.27 81 997.5
20260506192651 70 157 1.0 1.0 0.00 0.27 0.27 80 997.4
20260506192148 69 154 0.0 0.0 0.05 0.27 0.27 81 997.4
20260506191645 69 140 0.0 0.0 0.05 0.27 0.27 82 997.5
20260506191141 69 141 2.0 2.0 0.05 0.27 0.27 81 997.7
20260506190638 69 133 1.0 2.0 0.00 0.26 0.26 80 997.6
20260506190135 69 145 0.0 1.0 0.00 0.26 0.26 82 997.7
20260506185632 69 137 0.0 1.0 0.00 0.26 0.26 83 997.8
20260506185128 68 148 0.0 0.0 0.00 0.26 0.26 85 997.9
20260506184626 67 183 1.0 1.0 0.00 0.26 0.26 85 997.9
20260506184123 67 174 1.0 2.0 0.00 0.26 0.26 84 997.8
20260506183619 67 148 0.0 0.0 0.00 0.26 0.26 86 997.8
20260506183115 67 140 2.0 2.0 0.00 0.26 0.26 84 998.0
20260506182613 67 146 1.0 1.0 0.00 0.26 0.26 85 998.3
20260506182110 67 163 0.0 1.0 0.00 0.26 0.26 85 998.1
20260506181608 67 229 1.0 3.0 0.00 0.26 0.26 85 997.7
20260506181105 67 150 0.0 0.0 0.00 0.26 0.26 87 998.0
20260506180601 67 149 0.0 1.0 0.00 0.26 0.26 86 998.1
20260506180058 66 165 0.0 0.0 0.00 0.26 0.26 87 998.2
20260506175554 66 195 2.0 2.0 0.00 0.26 0.26 87 998.1
20260506175050 66 142 0.0 0.0 0.07 0.26 0.26 89 998.3
20260506174549 65 168 0.0 1.0 0.07 0.26 0.26 89 998.2
20260506174045 65 144 2.0 4.0 0.00 0.25 0.25 89 998.5
20260506173543 65 146 0.0 0.0 0.00 0.25 0.25 92 998.3
20260506173039 64 149 0.0 0.0 0.00 0.25 0.25 92 998.3
20260506172537 64 141 2.0 3.0 0.00 0.25 0.25 93 998.3
20260506172033 64 184 1.0 1.0 0.00 0.25 0.25 92 998.4
20260506171531 64 145 1.0 2.0 0.00 0.25 0.25 94 998.4
20260506171028 63 143 0.0 0.0 0.00 0.25 0.25 94 998.5
20260506170526 63 143 2.0 2.0 0.05 0.25 0.25 93 998.5
20260506170023 63 147 1.0 2.0 0.05 0.25 0.25 94 998.6
20260506165521 63 152 1.0 1.0 0.00 0.24 0.24 95 998.8
20260506165017 63 172 1.0 1.0 0.00 0.24 0.24 96 998.6
20260506164514 63 148 0.0 0.0 0.00 0.24 0.24 97 998.5
20260506164012 63 176 1.0 2.0 0.00 0.24 0.24 97 998.6
20260506163507 62 166 0.0 1.0 0.00 0.24 0.24 98 998.6
20260506163002 62 144 0.0 0.0 0.07 0.24 0.24 98 998.7
20260506162500 62 164 0.0 1.0 0.07 0.24 0.24 98 998.7
20260506161951 62 170 0.0 1.0 0.00 0.23 0.23 98 998.6
20260506161449 62 154 0.0 0.0 0.00 0.23 0.23 98 998.6
20260506160941 62 169 1.0 1.0 0.00 0.23 0.23 99 998.9
20260506160438 62 156 0.0 1.0 0.07 0.23 0.23 98 998.7
20260506155935 62 158 0.0 0.0 0.07 0.23 0.23 99 998.7
20260506155433 61 145 0.0 1.0 0.00 0.22 0.22 99 998.8
20260506153559 61 135 0.0 0.0 0.05 0.22 0.22 99 999.0
20260506153057 61 152 0.0 1.0 0.00 0.21 0.21 99 999.1
20260506152554 61 177 2.0 2.0 0.07 0.21 0.21 99 998.9
20260506152052 60 175 1.0 1.0 0.07 0.21 0.21 99 998.8
20260506151549 60 169 0.0 0.0 0.00 0.20 0.20 99 999.1
20260506151046 60 143 1.0 1.0 0.05 0.20 0.20 98 999.2
20260506150543 60 195 1.0 1.0 0.05 0.20 0.20 98 999.1
20260506150040 61 158 1.0 1.0 0.07 0.19 0.19 98 999.4
20260506145536 60 165 0.0 0.0 0.07 0.19 0.19 99 999.4
20260506145034 61 172 0.0 1.0 0.05 0.18 0.18 98 999.6
20260506144530 60 114 0.0 1.0 0.05 0.18 0.18 99 999.7
20260506144028 60 159 0.0 0.0 0.07 0.17 0.17 99 999.9
20260506143526 60 165 0.0 0.0 0.12 0.17 0.17 98 999.7
20260506143024 60 150 0.0 0.0 0.12 0.16 0.16 98 999.6
20260506142521 60 150 0.0 0.0 0.07 0.15 0.15 98 999.5
20260506142019 60 172 0.0 1.0 0.05 0.14 0.14 98 999.6
20260506141517 60 141 0.0 1.0 0.12 0.14 0.14 98 999.7
20260506141015 60 161 0.0 0.0 0.14 0.13 0.13 98 999.6
20260506140512 60 134 0.0 0.0 0.07 0.12 0.12 98 999.4
20260506140009 60 135 0.0 0.0 0.12 0.12 0.12 97 999.6
20260506135506 60 157 0.0 1.0 0.12 0.11 0.11 97 999.6
20260506135002 60 132 0.0 0.0 0.12 0.10 0.10 97 999.6
20260506134458 61 139 0.0 0.0 0.12 0.09 0.09 97 999.6
20260506133954 61 141 0.0 0.0 0.07 0.08 0.08 96 999.9
20260506133452 61 142 0.0 0.0 0.05 0.07 0.07 96 999.9
20260506132948 61 147 0.0 0.0 0.12 0.07 0.07 95 1000.0
20260506132445 61 136 0.0 0.0 0.07 0.06 0.06 95 1000.2
20260506131943 61 151 0.0 0.0 0.05 0.05 0.05 94 1000.3
20260506131439 62 165 0.0 0.0 0.05 0.05 0.05 94 1000.2
20260506130936 62 163 0.0 0.0 0.07 0.04 0.04 94 1000.0